www.pogodaiklimat.ru

Погода и климат >> Архив погоды >> Канада >> Квебек >> Лак Эон


ПОГОДА на Лак Эон

  • Прогноз погоды на Лак Эон
  • Монитор погоды на Лак Эон

АРХИВ ПОГОДЫ на Лак Эон

Время (UTC), дата Ветер
(напр.,м/с)
 
Видим.   Явления Облачность Т
(С)
Тd
(С)
f
(%)
Тe
(С)
Тes
(С)
Комфортность P
(гПа)
Po
(гПа)
Тmin
(С)
Tmax
(С)
R
(мм)
R24
(мм)
S
(см)
21 16.03 Ю 3 н/о н/о -2.4 -3.7 91 -8 -8 988.8 918.8
00 17.03 ЮЗ 2 н/о н/о -3.1 -3.7 96 -7 -7 986.7 916.9 -3.1 -0.2
03 17.03 СЗ 5 н/о {осадки} н/о -4.8 -6.0 91 -12 -12 986.2 916.3 0.9
06 17.03 СЗ 6 н/о {осадки} н/о -10.9 -13.3 82 -20 -20 987.9 917.5 -10.9 -0.2 1 6
09 17.03 СЗ 7 н/о н/о -14.7 -17.5 79 -25 -25 990.7 919.7
12 17.03 СЗ 7 н/о н/о -15.9 -19.3 75 -26 -26 993.1 921.8 -16.0 -0.2
15 17.03 З 5 н/о н/о -14.8 -19.2 69 -24 -24 994.4 922.9
18 17.03 З 7 н/о н/о -12.9 -17.7 67 -22 -22 995.6 923.7 -16.2 -10.9
21 17.03 З 5 н/о н/о -13.2 -17.3 71 -22 -22 998.3 925.9
00 18.03 СЗ 5 н/о н/о -14.9 -17.8 78 -23 -23 1002.0 929.1 -16.2 -12.8
06 18.03 З 3 н/о н/о -16.9 -20.0 77 -24 -24 1004.7 931.7 10
09 18.03 СЗ 3 н/о н/о -16.7 -19.5 79 -23 -23 1006.2 933.1
12 18.03 СЗ 3 н/о н/о -15.7 -19.0 76 -23 -23 1008.6 935.2
15 18.03 СЗ 3 н/о н/о -12.9 -17.5 68 -19 -19 1010.7 937.3
18 18.03 СЗ 4 н/о {осадки} н/о -11.3 -18.0 58 -18 -18 1012.2 938.8 -10.9 0.2
21 18.03 СЗ 4 н/о н/о -12.3 -18.0 62 -19 -19 1014.9 941.2
00 19.03 С 3 н/о н/о -14.3 -18.8 69 -20 -20 1018.0 944.0 -17.0 -10.9
03 19.03 С 3 н/о н/о -16.1 -20.5 69 -23 -23 1019.9 945.8
06 19.03 СЗ 2 н/о н/о -18.9 -22.2 75 -25 -25 1021.3 947.0 -19.2 -10.9
09 19.03 СЗ 2 н/о н/о -23.0 -26.5 73 -28 -28 1022.6 947.8
12 19.03 СЗ 2 н/о н/о -21.0 -24.9 71 -27 -27 1024.7 949.7 -27.7 -10.9
15 19.03 СЗ 3 н/о {осадки} н/о -14.0 -24.0 42 -21 -21 1024.2 949.7 0.7
18 19.03 СЗ 3 н/о {осадки} н/о -11.4 -23.0 38 -17 -17 1023.4 949.0 -27.7 -11.4 0.9
21 19.03 З 2 н/о {осадки} н/о -10.5 -22.8 36 -15 -15 1023.2 948.5 0.2
00 20.03 ЮЗ 2 н/о {осадки} н/о -17.4 -22.1 67 -23 -23 1023.8 948.6 -27.7 -10.3 0.2
03 20.03 ЮЗ 2 н/о н/о -16.4 -21.4 65 -21 -21 1021.9 947.6
06 20.03 Ю 2 н/о н/о -18.8 -23.1 69 -23 -23 1020.4 946.2 -27.7 -10.3
09 20.03 ЮЗ 4 н/о н/о -17.4 -21.3 72 -25 -25 1017.6 943.8
12 20.03 ЮЗ 5 н/о н/о -12.8 -19.3 58 -21 -21 1015.6 941.7 -21.0 -10.3
15 20.03 ЮЗ 5 н/о н/о -6.8 -13.1 61 -14 -14 1012.8 939.7
18 20.03 З 6 н/о н/о -5.2 -12.6 56 -13 -13 1010.9 937.9 -21.0 -4.8 0.3
21 20.03 СЗ 5 н/о н/о -5.6 -9.9 72 -12 -12 1014.2 941.0
00 21.03 С 4 н/о н/о -10.6 -21.0 42 -18 -18 1018.9 945.4 -21.0 -3.6
03 21.03 ЮЗ 2 н/о н/о -19.7 -22.9 76 -26 -26 1021.7 947.7
06 21.03 Ю 1 н/о н/о -24.7 -27.0 81 -26 -26 1022.7 948.4 -26.2 -3.6 21
09 21.03 Ю 1 н/о н/о -27.5 -31.2 71 -31 -31 опасность
обморожения
1023.0 948.4
12 21.03 ЮЗ 1 н/о н/о -16.9 -22.7 61 -17 -17 1021.2 947.2 -28.9 -3.6
15 21.03 Ю 6 н/о {осадки} н/о -6.6 -12.7 62 -14 -14 1018.8 945.0 0.8
18 21.03 Ю 6 н/о {осадки} н/о -5.8 -10.1 72 -13 -13 1016.7 942.7 -28.9 -5.6 1
21 21.03 Ю 7 н/о н/о -5.0 -8.0 79 -13 -13 1015.1 941.1
00 22.03 Ю 5 н/о н/о -4.2 -6.9 81 -11 -11 1014.4 941.4 -28.9 -4.2
03 22.03 ЮЗ 4 н/о н/о -3.2 -6.1 80 -9 -9 1012.4 940.4
06 22.03 ЮЗ 4 н/о н/о -2.6 -5.1 83 -9 -9 1011.5 939.7 -28.9 -2.6 21
09 22.03 ЮЗ 3 н/о н/о -2.3 -6.4 73 -7 -7 1010.4 938.7
12 22.03 Ю 4 н/о {осадки} н/о -3.0 -7.7 70 -8 -8 1010.6 938.9 -4.3 -2.6 0.2
15 22.03 ЮЗ 4 н/о {осадки} н/о +0.1 -6.8 60 -5 -5 1011.5 940.1 3
18 22.03 ЮЗ 3 н/о {осадки} н/о +0.5 -5.0 67 -3 -3 1011.1 939.8 -5.7 +0.6 3
21 22.03 Ю 3 н/о н/о -0.8 -2.8 86 -6 -6 1011.2 939.8
00 23.03 СВ 2 н/о {осадки} н/о -1.9 -2.6 95 -5 -5 1011.0 939.5 -3.9 +0.8 1
03 23.03 СВ 5 н/о {осадки} н/о -2.1 -2.8 95 -9 -9 1007.5 936.4 1
06 23.03 СВ 6 н/о {осадки} н/о -2.4 -3.2 94 -10 -10 1003.3 932.5 -3.9 +0.8 6 14
09 23.03 СВ 7 н/о н/о -7.6 -9.1 89 -17 -17 1000.4 929.4 0.9
12 23.03 СВ 8 н/о {осадки} н/о -9.7 -11.7 85 -19 -19 999.6 928.4 -9.8 +0.8 1
15 23.03 СВ 6 н/о н/о -9.5 -11.7 84 -18 -18 997.7 926.6
18 23.03 СВ 6 н/о н/о -8.6 -11.2 81 -17 -17 995.7 924.8 -10.1 -2.4

 

Местоположение метеостанции Лак Эон (Квебек, Канада): широта 51.87 долгота -63.26 высота над уровнем моря 589 м.

В архиве по умолчанию представлена погода на Лак Эон за последнюю неделю. Архивные данные за месяц целиком и за предыдущие месяцы, начиная с января 2011 года, Вы можете получить, выбрав интересующий диапазон дат из раскрывающегося списка и нажав кнопку "Ввод!".


*Определитесь, кто Вы:
робот инопланетянин человек

Внимание! Время в таблицах - всемирное. Для получения местного времени необходимо прибавить поправку, которая равна -4 ч.

Смотрите также архив погоды в соседних городах и на ближайших метеорологических станциях:

Погода в Лонг Пойнт де Минган (Квебек, Канада) (190 км)
Погода на Острове Перрокетов (Квебек, Канада) (195 км)
Погода в Рекхаусе (Ньюфаундленд и Лабрадор, Канада) (197 км)
Погода в Наташкане (Квебек, Канада) (214 км)
Погода в Пор-Менье (Квебек, Канада) (238 км)
Погода в Аэропорту Гуз-Бэй (Ньюфаундленд и Лабрадор, Канада) (251 км)
Погода в Вабуше (Ньюфаундленд и Лабрадор, Канада) (271 км)
Погода в Сет-Иле (Квебек, Канада) (278 км)
Погода в Пуант-Нуаре (Квебек, Канада) (293 км)
Погода на Кейп Уиттл (Квебек, Канада) (295 км)

Пояснения к столбцам:

Ветер - указаны скорость ветра в м/с - средняя за 10 мин, порывы в срок и между сроками (в фигурных скобках) и направление, откуда дует ветер: С - северный, СВ - северо-восточный, В - восточный, ЮВ - юго-восточный, Ю - южный, ЮЗ - юго-западный, З - западный, СЗ - северо-западный.
Видимость - горизонтальная дальность видимости в метрах или километрах. При видимости от 1 до 10 км при отсутствии осадков обычно наблюдается дымка, при ухудшении видимости до 1 км и менее - туман. В сухую погоду видимость может ухудшаться дымом, пылью или мглою.
Явления - указаны атмосферные явления, наблюдавшиеся в срок или в последний час перед сроком; фигурными скобками обозначены явления, наблюдавшиеся между сроками (за 1-3 часа до срока); квадратными скобками обозначены град или гололедные отложения с указанием их диаметра в мм.
Облачность - указаны через наклонную черту общая и нижняя облачность в баллах и высота нижней границы облаков в метрах; квадратными скобками обозначены формы облаков: Ci - перистые, Cs - перисто-слоистые, Cc - перисто-кучевые, Ac - высококучевые, As - высокослоистые, Sc - слоисто-кучевые, Ns - слоисто-дождевые, Cu - кучевые, Cb - кучево-дождевые. Подробнее классификацию облаков см. в Атласе облаков (PDF).
T - Температура воздуха - температура, измеренная на высоте 2 м над землей.
Td - Температура точки росы - температура, при понижении до которой содержащийся в воздухе водяной пар достигнет насыщения.
f - Относительная влажность воздуха - влажноcть воздуха, измеренная на высоте 2 м над землей.
Te - Эффективная температура - температура, которую ощущает одетый по сезону человек в тени. Характеристика душности погоды. При расчете учитывается влияние влажности воздуха и скорости ветра на теплоощущения человека.
Tes - Эффективная температура на солнце - температура, которую ощущает человек, с поправкой на солнечный нагрев. Характеристика знойности погоды. Зависит от высоты солнца над горизонтом, облачности и скорости ветра. Ночью, в пасмурную погоду, а также при ветре 12 м/с и более поправка равна нулю.
P - Атмосферное давление - приведенное к уровню моря атмосферное давление.
Po - Атмосферное давление - измеренное на уровне метеостанции атмосферное давление.
Tmin - Минимальная температура - минимум температуры воздуха на высоте 2 м над землей.
Tmax - Максимальная температура - максимум температуры воздуха на высоте 2 м над землей.
R - Количество осадков - Количество выпавших осадков за период времени, мм. При наведении курсора мыши на число - период времени, за который выпало указанное количество осадков.
R24 - Количество осадков - Количество выпавших осадков за 24 часа, мм.
S - Снежный покров - Высота снежного покрова, см. При наведении курсора мыши на число - состояние снежного покрова и степень покрытия местности в баллах.